Location: Sternwarte Zollern-Alb
(48.2880°N, 8.6780°E)
Time: 03:37:01
(UTC+02:00)

ISS - Pass Details

Date: 23 April 2026
Orbit: 414 x 424 km, 51.6° (Epoch: 19 May)

Event Time Altitude Azimuth Distance (km) Brightness Sun altitude
Exits shadow 04:43:58 27° 197° (SSW) 835 -2.7 -14.8°
Maximum altitude 04:45:15 40° 147° (SSE) 629 -3.0 -14.6°
Drops below altitude 10° 04:48:26 10° 76° (ENE) 1,504 0.1 -14.2°
Sets 04:50:37 0° 69° (ENE) 2,374 1.6 -13.9°
